ギブス彗星

339P/Gibbs (2023)

English version
Home page
Updated on July 8, 2023

---------------------------------------------------------------------

・ プロフィール

・ 軌道要素

Epoch 2023 Sept. 13.0 TT = JDT 2460200.5
T 2023 Aug. 30.94504 TT                                 MPCW
q   1.3482788            (2000.0)            P               Q
n   0.13843578     Peri.   27.46035     -0.93830145     +0.34558687
a   3.7008699      Node   172.72295     -0.33277853     -0.89236273
e   0.6356860      Incl.    5.73321     -0.09406830     -0.29027312
P   7.12
From 117 observations 2009 Apr. 24-2016 July 3, mean residual 0".5.

・ 星図

・ 光度変化

        m1 = 9.5 + 5 logΔ + 40 log r(t - 40)

---------------------------------------------------------------------

軌道要素はM.P.E.C. 2016-N13に掲載されたものです。
星図はステラナビゲータ Ver.11 (アストロアーツ) で作成したものです。
光度グラフはComet for Windowsで作成したものです。

---------------------------------------------------------------------

Copyright(C) Seiichi Yoshida (comet@aerith.net). All rights reserved.